SKY156 RJBE-RJSS

Flight info

Callsign SKY156
Flight time 0h 58m
Altitude 35000
Route MUKRI LANID REVUE HYOGO SANDA MIDER Y28 KCC Y88 TENRU Y15 OWLET
Aircraft B738/M-SDE2E3FGHIRWXY/LB1

Departure

Time 2026-05-06 08:38
Airport Kobe Airport (RJBE)

Arrival

Time 2026-05-06 09:37
Airport Sendai Airport (RJSS)
Time Latitude Longitude Altitude Speed Heading
2026-05-06 07:43 34.63623 135.23013 31 ft 0 kts 353°
2026-05-06 08:30 34.63618 135.23014 57 ft 2 kts 354°
2026-05-06 08:30 34.63596 135.23017 29 ft 2 kts 353°
2026-05-06 08:30 34.63585 135.23018 30 ft 2 kts 353°
2026-05-06 08:31 34.63569 135.23021 29 ft 2 kts 354°
2026-05-06 08:31 34.63552 135.23023 30 ft 2 kts 354°
2026-05-06 08:31 34.63537 135.23027 31 ft 2 kts 333°
2026-05-06 08:31 34.63522 135.23037 30 ft 2 kts 326°
2026-05-06 08:32 34.63509 135.23049 29 ft 2 kts 320°
2026-05-06 08:32 34.63497 135.23063 29 ft 2 kts 308°
2026-05-06 08:32 34.63491 135.23074 29 ft 1 kts 279°
2026-05-06 08:34 34.63487 135.23017 30 ft 10 kts 264°
2026-05-06 08:34 34.63477 135.22906 30 ft 16 kts 264°
2026-05-06 08:35 34.63465 135.22750 31 ft 20 kts 264°
2026-05-06 08:35 34.63451 135.22566 31 ft 23 kts 265°
2026-05-06 08:35 34.63437 135.22378 31 ft 22 kts 264°
2026-05-06 08:35 34.63422 135.22195 31 ft 21 kts 264°
2026-05-06 08:36 34.63408 135.22017 30 ft 21 kts 265°
2026-05-06 08:36 34.63394 135.21834 30 ft 22 kts 265°
2026-05-06 08:36 34.63379 135.21647 30 ft 22 kts 264°
2026-05-06 08:36 34.63365 135.21465 30 ft 21 kts 264°
2026-05-06 08:37 34.63352 135.21288 30 ft 21 kts 265°
2026-05-06 08:37 34.63339 135.21117 31 ft 20 kts 264°
2026-05-06 08:37 34.63238 135.21041 30 ft 19 kts 172°
2026-05-06 08:37 34.63173 135.21165 27 ft 22 kts 87°
2026-05-06 08:38 34.63216 135.21720 25 ft 112 kts 84°
2026-05-06 08:38 34.63312 135.22975 131 ft 179 kts 85°
2026-05-06 08:38 34.63426 135.24608 792 ft 207 kts 87°
2026-05-06 08:38 34.63249 135.26362 1704 ft 215 kts 112°
2026-05-06 08:39 34.62290 135.27758 2576 ft 226 kts 152°
2026-05-06 08:39 34.60732 135.28082 3412 ft 236 kts 188°
2026-05-06 08:39 34.59299 135.27137 4204 ft 237 kts 229°
2026-05-06 08:39 34.58687 135.25327 5061 ft 230 kts 262°
2026-05-06 08:40 34.58516 135.23430 5882 ft 225 kts 263°
2026-05-06 08:40 34.58384 135.21556 6604 ft 222 kts 264°
2026-05-06 08:40 34.58242 135.19704 7177 ft 224 kts 263°
2026-05-06 08:40 34.58068 135.17803 7762 ft 229 kts 262°
2026-05-06 08:41 34.57870 135.15848 8380 ft 237 kts 262°
2026-05-06 08:41 34.57657 135.13841 9036 ft 243 kts 262°
2026-05-06 08:41 34.57432 135.11777 9711 ft 250 kts 262°
2026-05-06 08:41 34.57077 135.09689 10337 ft 258 kts 250°
2026-05-06 08:42 34.56397 135.07638 10953 ft 265 kts 248°
2026-05-06 08:42 34.55818 135.05500 11543 ft 271 kts 265°
2026-05-06 08:42 34.55868 135.03193 12210 ft 276 kts 272°
2026-05-06 08:42 34.55969 135.00841 12843 ft 282 kts 272°
2026-05-06 08:43 34.56055 134.98430 13511 ft 288 kts 271°
2026-05-06 08:43 34.56134 134.95972 14148 ft 294 kts 271°
2026-05-06 08:43 34.56450 134.93500 14711 ft 302 kts 290°
2026-05-06 08:43 34.57579 134.91366 15317 ft 312 kts 313°
2026-05-06 08:44 34.59390 134.89862 15935 ft 323 kts 335°
2026-05-06 08:44 34.61592 134.89175 16583 ft 330 kts 345°
2026-05-06 08:44 34.63877 134.88687 17216 ft 334 kts 346°
2026-05-06 08:44 34.66176 134.88199 17854 ft 337 kts 345°
2026-05-06 08:45 34.68521 134.87826 18494 ft 344 kts 354°
2026-05-06 08:45 34.70944 134.88009 19074 ft 352 kts
2026-05-06 08:45 34.73344 134.88757 19654 ft 359 kts 13°
2026-05-06 08:45 34.75684 134.89757 20238 ft 362 kts 16°
2026-05-06 08:46 34.77958 134.91142 20834 ft 370 kts 28°
2026-05-06 08:46 34.80011 134.93061 21454 ft 374 kts 38°
2026-05-06 08:46 34.81939 134.95201 22086 ft 375 kts 38°
2026-05-06 08:46 34.83852 134.97372 22635 ft 379 kts 43°
2026-05-06 08:47 34.85469 134.99949 23127 ft 387 kts 57°
2026-05-06 08:47 34.86629 135.02947 23525 ft 396 kts 72°
2026-05-06 08:47 34.87347 135.06208 23900 ft 401 kts 77°
2026-05-06 08:47 34.87974 135.09537 24232 ft 407 kts 79°
2026-05-06 08:48 34.88595 135.12925 24565 ft 412 kts 79°
2026-05-06 08:48 34.89233 135.16349 24912 ft 418 kts 79°
2026-05-06 08:48 34.89895 135.19815 25248 ft 423 kts 78°
2026-05-06 08:48 34.90569 135.23284 25600 ft 427 kts 79°
2026-05-06 08:49 34.91263 135.26826 25949 ft 432 kts 79°
2026-05-06 08:49 34.91980 135.30452 26291 ft 436 kts 79°
2026-05-06 08:49 34.92674 135.34008 26667 ft 439 kts 79°
2026-05-06 08:49 34.93389 135.37701 26988 ft 444 kts 80°
2026-05-06 08:50 34.94084 135.41397 27298 ft 450 kts 81°
2026-05-06 08:50 34.94780 135.45140 27603 ft 455 kts 81°
2026-05-06 08:50 34.95480 135.48917 27912 ft 460 kts 81°
2026-05-06 08:50 34.96181 135.52698 28180 ft 464 kts 81°
2026-05-06 08:51 34.96849 135.56310 28485 ft 468 kts 81°
2026-05-06 08:51 34.97578 135.60247 28806 ft 473 kts 81°
2026-05-06 08:51 34.98305 135.64171 29106 ft 477 kts 82°
2026-05-06 08:51 34.99035 135.68122 29446 ft 479 kts 82°
2026-05-06 08:52 34.99772 135.72115 29767 ft 483 kts 82°
2026-05-06 08:52 35.00511 135.76122 30102 ft 486 kts 82°
2026-05-06 08:52 35.01254 135.80166 30410 ft 489 kts 82°
2026-05-06 08:52 35.02027 135.84225 30703 ft 493 kts 80°
2026-05-06 08:53 35.02919 135.88228 30970 ft 496 kts 78°
2026-05-06 08:53 35.03892 135.92285 31239 ft 500 kts 78°
2026-05-06 08:53 35.04882 135.96407 31246 ft 510 kts 78°
2026-05-06 08:54 35.06845 136.04883 31459 ft 524 kts 78°
2026-05-06 08:54 35.07828 136.09163 31837 ft 523 kts 79°
2026-05-06 08:54 35.08816 136.13456 32192 ft 522 kts 79°
2026-05-06 08:54 35.09796 136.17720 32559 ft 522 kts 79°
2026-05-06 08:55 35.10774 136.21984 32924 ft 521 kts 79°
2026-05-06 08:55 35.11749 136.26241 33299 ft 520 kts 80°
2026-05-06 08:55 35.12721 136.30492 33671 ft 518 kts 80°
2026-05-06 08:55 35.13677 136.34673 34045 ft 517 kts 81°
2026-05-06 08:56 35.14641 136.38895 34399 ft 515 kts 80°
2026-05-06 08:56 35.15602 136.43110 34732 ft 513 kts 80°
2026-05-06 08:56 35.16558 136.47307 35018 ft 511 kts 80°
2026-05-06 08:56 35.17496 136.51482 35233 ft 509 kts 80°
2026-05-06 08:57 35.18443 136.55675 35195 ft 516 kts 80°
2026-05-06 08:57 35.20362 136.64160 35181 ft 529 kts 80°
2026-05-06 08:58 35.22338 136.72922 35172 ft 540 kts 79°
2026-05-06 08:58 35.24344 136.81858 35168 ft 550 kts 79°
2026-05-06 08:59 35.26401 136.90979 35172 ft 561 kts 77°
2026-05-06 08:59 35.29355 136.99947 35185 ft 575 kts 67°
2026-05-06 09:00 35.32744 137.08828 35169 ft 580 kts 67°
2026-05-06 09:00 35.36058 137.17852 35176 ft 581 kts 69°
2026-05-06 09:01 35.39314 137.26937 35178 ft 580 kts 68°
2026-05-06 09:01 35.42691 137.35842 35167 ft 572 kts 66°
2026-05-06 09:02 35.46083 137.44648 35183 ft 569 kts 66°
2026-05-06 09:02 35.49401 137.53390 35183 ft 569 kts 66°
2026-05-06 09:03 35.52743 137.62194 35197 ft 569 kts 66°
2026-05-06 09:03 35.56104 137.71040 35200 ft 570 kts 66°
2026-05-06 09:04 35.59427 137.79832 35197 ft 571 kts 67°
2026-05-06 09:04 35.62683 137.88756 35176 ft 571 kts 68°
2026-05-06 09:05 35.66177 137.97534 35169 ft 572 kts 56°
2026-05-06 09:05 35.71231 138.05018 35196 ft 565 kts 37°
2026-05-06 09:06 35.77292 138.10992 35203 ft 560 kts 31°
2026-05-06 09:06 35.83485 138.16834 35192 ft 559 kts 31°
2026-05-06 09:07 35.89615 138.22785 35189 ft 559 kts 31°
2026-05-06 09:07 35.95716 138.28791 35183 ft 562 kts 32°
2026-05-06 09:08 36.01805 138.34817 35179 ft 566 kts 32°
2026-05-06 09:08 36.07966 138.40902 35177 ft 567 kts 32°
2026-05-06 09:09 36.14126 138.46981 35177 ft 566 kts 32°
2026-05-06 09:09 36.20270 138.53072 35177 ft 566 kts 32°
2026-05-06 09:10 36.26404 138.59175 35188 ft 565 kts 32°
2026-05-06 09:10 36.32519 138.65287 35202 ft 564 kts 32°
2026-05-06 09:11 36.38602 138.71387 35242 ft 562 kts 32°
2026-05-06 09:11 36.44702 138.77497 35041 ft 564 kts 31°
2026-05-06 09:11 36.47758 138.80558 34529 ft 563 kts 32°
2026-05-06 09:12 36.50789 138.83613 34071 ft 560 kts 32°
2026-05-06 09:12 36.53803 138.86656 33530 ft 556 kts 32°
2026-05-06 09:12 36.56798 138.89676 33048 ft 552 kts 32°
2026-05-06 09:12 36.59780 138.92690 32549 ft 551 kts 33°
2026-05-06 09:13 36.62750 138.95694 32053 ft 550 kts 32°
2026-05-06 09:13 36.65740 138.98711 31595 ft 553 kts 33°
2026-05-06 09:13 36.68751 139.01757 31134 ft 559 kts 32°
2026-05-06 09:13 36.71742 139.04782 30651 ft 562 kts 33°
2026-05-06 09:14 36.74779 139.07861 30200 ft 562 kts 33°
2026-05-06 09:14 36.77805 139.10943 29683 ft 562 kts 33°
2026-05-06 09:14 36.80824 139.14020 29168 ft 556 kts 33°
2026-05-06 09:14 36.82809 139.16032 28792 ft 552 kts 33°
2026-05-06 09:15 36.85769 139.19035 28278 ft 544 kts 33°
2026-05-06 09:15 36.88686 139.21994 27770 ft 537 kts 33°
2026-05-06 09:15 36.91570 139.24916 27256 ft 530 kts 34°
2026-05-06 09:15 36.94412 139.27791 26747 ft 521 kts 34°
2026-05-06 09:16 36.97208 139.30661 26266 ft 520 kts 34°
2026-05-06 09:16 37.00034 139.33447 25809 ft 514 kts 32°
2026-05-06 09:16 37.02847 139.36158 25333 ft 506 kts 34°
2026-05-06 09:16 37.05575 139.38884 24880 ft 497 kts 36°
2026-05-06 09:17 37.08192 139.41665 24428 ft 490 kts 37°
2026-05-06 09:17 37.10813 139.44326 23948 ft 482 kts 36°
2026-05-06 09:17 37.13347 139.46981 23469 ft 475 kts 37°
2026-05-06 09:17 37.15859 139.49612 22914 ft 467 kts 36°
2026-05-06 09:18 37.18362 139.52148 22399 ft 459 kts 36°
2026-05-06 09:18 37.20822 139.54682 21879 ft 455 kts 36°
2026-05-06 09:18 37.23257 139.57185 21373 ft 450 kts 36°
2026-05-06 09:18 37.25669 139.59669 20875 ft 446 kts 37°
2026-05-06 09:19 37.28051 139.62123 20390 ft 441 kts 36°
2026-05-06 09:19 37.30416 139.64549 19898 ft 437 kts 36°
2026-05-06 09:19 37.32764 139.66953 19426 ft 433 kts 37°
2026-05-06 09:19 37.35089 139.69337 18946 ft 429 kts 37°
2026-05-06 09:20 37.37390 139.71711 18504 ft 426 kts 37°
2026-05-06 09:20 37.39625 139.74157 17974 ft 425 kts 43°
2026-05-06 09:20 37.41512 139.77005 17456 ft 424 kts 54°
2026-05-06 09:20 37.43115 139.80100 16946 ft 421 kts 56°
2026-05-06 09:21 37.44683 139.83195 16439 ft 418 kts 56°
2026-05-06 09:21 37.46248 139.86268 15946 ft 415 kts 56°
2026-05-06 09:21 37.47810 139.89301 15455 ft 410 kts 56°
2026-05-06 09:21 37.49339 139.92244 14971 ft 405 kts 56°
2026-05-06 09:22 37.50876 139.95190 14499 ft 400 kts 56°
2026-05-06 09:22 37.52397 139.98103 14024 ft 395 kts 56°
2026-05-06 09:22 37.53900 140.00988 13514 ft 391 kts 56°
2026-05-06 09:22 37.55383 140.03846 13134 ft 390 kts 56°
2026-05-06 09:23 37.56874 140.06728 13070 ft 391 kts 56°
2026-05-06 09:23 37.58356 140.09596 13035 ft 390 kts 56°
2026-05-06 09:23 37.59838 140.12463 13036 ft 391 kts 57°
2026-05-06 09:23 37.61306 140.15305 13042 ft 392 kts 57°
2026-05-06 09:24 37.62794 140.18185 13044 ft 392 kts 56°
2026-05-06 09:24 37.64282 140.21064 13037 ft 391 kts 57°
2026-05-06 09:24 37.65770 140.23943 13033 ft 391 kts 56°
2026-05-06 09:24 37.67255 140.26820 13044 ft 391 kts 57°
2026-05-06 09:25 37.68739 140.29701 13036 ft 391 kts 56°
2026-05-06 09:25 37.70222 140.32578 13035 ft 391 kts 57°
2026-05-06 09:25 37.71706 140.35461 13034 ft 392 kts 57°
2026-05-06 09:25 37.73191 140.38345 13043 ft 392 kts 57°
2026-05-06 09:26 37.74681 140.41232 13050 ft 392 kts 57°
2026-05-06 09:26 37.76174 140.44121 13046 ft 393 kts 57°
2026-05-06 09:26 37.77355 140.47221 13022 ft 391 kts 76°
2026-05-06 09:26 37.77715 140.50555 13045 ft 375 kts 86°
2026-05-06 09:27 37.77913 140.53738 12883 ft 355 kts 86°
2026-05-06 09:27 37.78121 140.56805 12471 ft 346 kts 86°
2026-05-06 09:27 37.78336 140.59804 12082 ft 337 kts 86°
2026-05-06 09:27 37.78706 140.62686 11685 ft 331 kts 71°
2026-05-06 09:28 37.79873 140.65140 11324 ft 324 kts 45°
2026-05-06 09:28 37.81647 140.66794 10956 ft 313 kts 23°
2026-05-06 09:28 37.83635 140.67583 10536 ft 293 kts
2026-05-06 09:28 37.85600 140.67603 10088 ft 273 kts 352°
2026-05-06 09:29 37.87441 140.67380 9559 ft 260 kts 350°
2026-05-06 09:29 37.89215 140.67136 8915 ft 252 kts 350°
2026-05-06 09:29 37.90938 140.66906 8298 ft 246 kts 351°
2026-05-06 09:29 37.92619 140.66692 7676 ft 240 kts 351°
2026-05-06 09:30 37.94260 140.66490 7068 ft 234 kts 352°
2026-05-06 09:30 37.95861 140.66295 6475 ft 229 kts 353°
2026-05-06 09:30 37.97434 140.66105 5827 ft 225 kts 353°
2026-05-06 09:30 37.98975 140.65920 5201 ft 220 kts 352°
2026-05-06 09:31 38.00476 140.65789 4567 ft 218 kts
2026-05-06 09:31 38.01957 140.66163 4038 ft 213 kts 13°
2026-05-06 09:31 38.03383 140.66595 3527 ft 209 kts 11°
2026-05-06 09:31 38.04796 140.67001 3027 ft 208 kts 11°
2026-05-06 09:32 38.06204 140.67399 2623 ft 205 kts 11°
2026-05-06 09:32 38.07565 140.67782 2541 ft 199 kts 11°
2026-05-06 09:32 38.08916 140.68163 2532 ft 198 kts 13°
2026-05-06 09:32 38.10092 140.69025 2502 ft 198 kts 55°
2026-05-06 09:33 38.10668 140.70606 2516 ft 201 kts 73°
2026-05-06 09:33 38.11080 140.72265 2525 ft 197 kts 74°
2026-05-06 09:33 38.11483 140.73920 2491 ft 188 kts 73°
2026-05-06 09:33 38.11876 140.75518 2287 ft 193 kts 76°
2026-05-06 09:34 38.12271 140.77083 2033 ft 183 kts 73°
2026-05-06 09:34 38.12629 140.78599 1767 ft 177 kts 81°
2026-05-06 09:34 38.12853 140.80138 1532 ft 183 kts 86°
2026-05-06 09:34 38.13026 140.81796 1389 ft 198 kts 87°
2026-05-06 09:35 38.13192 140.83497 1118 ft 191 kts 89°
2026-05-06 09:35 38.13359 140.85129 768 ft 182 kts 89°
2026-05-06 09:35 38.13556 140.86666 557 ft 171 kts 88°
2026-05-06 09:35 38.13707 140.88089 352 ft 158 kts 85°
2026-05-06 09:36 38.13838 140.89468 122 ft 155 kts 88°
2026-05-06 09:36 38.13970 140.90749 17 ft 136 kts 86°
2026-05-06 09:36 38.14075 140.91795 10 ft 99 kts 82°
2026-05-06 09:36 38.14144 140.92466 16 ft 50 kts 83°
2026-05-06 09:37 38.14176 140.92779 14 ft 33 kts 82°
2026-05-06 09:37 38.14205 140.93055 14 ft 29 kts 82°
2026-05-06 09:37 38.14193 140.93248 12 ft 17 kts 136°
2026-05-06 09:37 38.14083 140.93267 14 ft 16 kts 207°
2026-05-06 09:38 38.14047 140.93142 14 ft 16 kts 263°
2026-05-06 09:38 38.14034 140.93011 14 ft 12 kts 260°
2026-05-06 09:38 38.13986 140.92993 14 ft 8 kts 166°
2026-05-06 09:38 38.13933 140.93004 15 ft 7 kts 172°
2026-05-06 09:39 38.13906 140.93008 15 ft 1 kts 172°
2026-05-06 09:39 38.13902 140.93009 14 ft 1 kts 172°